| time (UTC) | temp C | wind direction | speed KPH | gust KPH | rain 1hr cm | rain 24hr cm | rain mn cm | humidity % | barometer mb |
| 20260504043002 | 3 | 274 | 0.0 | 0.0 | 0.00 | 0.00 | 0.00 | 72 | 1011.8 |
| 20260504041559 | 3 | 274 | 0.0 | 0.0 | 0.00 | 0.00 | 0.00 | 71 | 1011.7 |
| 20260504040056 | 3 | 274 | 0.0 | 0.0 | 0.00 | 0.00 | 0.00 | 73 | 1011.6 |
| 20260504034554 | 2 | 274 | 0.0 | 0.0 | 0.00 | 0.00 | 0.00 | 74 | 1011.5 |
| 20260504033053 | 3 | 274 | 0.0 | 0.0 | 0.00 | 0.00 | 0.00 | 75 | 1011.4 |
| 20260504031552 | 3 | 274 | 0.0 | 0.0 | 0.00 | 0.00 | 0.00 | 74 | 1011.3 |
| 20260504030047 | 3 | 274 | 0.0 | 0.0 | 0.00 | 0.00 | 0.00 | 71 | 1011.2 |
| 20260504024548 | 3 | 274 | 0.0 | 0.0 | 0.00 | 0.00 | 0.00 | 68 | 1011.1 |
| 20260504023042 | 3 | 274 | 0.0 | 0.0 | 0.00 | 0.00 | 0.00 | 67 | 1011.0 |
| 20260504021539 | 3 | 274 | 0.0 | 0.0 | 0.00 | 0.00 | 0.00 | 66 | 1011.0 |
| 20260504020104 | 3 | 274 | 0.0 | 0.0 | 0.00 | 0.00 | 0.00 | 67 | 1010.9 |
| 20260504014518 | 4 | 274 | 0.0 | 0.0 | 0.00 | 0.00 | 0.00 | 68 | 1010.8 |
| 20260504013028 | 5 | 274 | 0.0 | 0.0 | 0.00 | 0.00 | 0.00 | 63 | 1010.6 |
| 20260504011548 | 5 | 274 | 0.0 | 0.0 | 0.00 | 0.00 | 0.00 | 61 | 1010.4 |
| 20260504010143 | 6 | 274 | 0.0 | 0.0 | 0.00 | 0.00 | 0.00 | 59 | 1010.2 |
| 20260504004600 | 8 | 274 | 0.0 | 0.0 | 0.00 | 0.00 | 0.00 | 54 | 1010.0 |
| 20260504003034 | 9 | 274 | 0.0 | 0.0 | 0.00 | 0.00 | 0.00 | 47 | 1009.9 |
| 20260504001529 | 10 | 274 | 0.0 | 0.0 | 0.00 | 0.00 | 0.00 | 49 | 1009.6 |
| 20260504000027 | 10 | 278 | 3.2 | 12.9 | 0.00 | 0.00 | 0.00 | 47 | 1009.4 |
| 20260503234526 | 10 | 304 | 8.0 | 19.3 | 0.00 | 0.00 | 0.00 | 48 | 1009.4 |
| 20260503233023 | 10 | 276 | 11.3 | 22.5 | 0.00 | 0.00 | 0.00 | 47 | 1009.3 |
| 20260503231520 | 11 | 284 | 9.7 | 20.9 | 0.00 | 0.00 | 0.00 | 46 | 1009.2 |
| 20260503230019 | 10 | 297 | 16.1 | 27.4 | 0.00 | 0.00 | 0.00 | 46 | 1009.1 |
| 20260503224517 | 11 | 259 | 20.9 | 32.2 | 0.00 | 0.00 | 0.00 | 44 | 1008.9 |
| 20260503223014 | 11 | 318 | 19.3 | 32.2 | 0.00 | 0.00 | 0.00 | 48 | 1008.7 |
| 20260503221511 | 10 | 300 | 20.9 | 30.6 | 0.00 | 0.00 | 0.00 | 46 | 1008.7 |
| 20260503220010 | 10 | 325 | 22.5 | 32.2 | 0.00 | 0.00 | 0.00 | 50 | 1008.4 |
| 20260503214503 | 10 | 300 | 25.7 | 38.6 | 0.00 | 0.00 | 0.00 | 47 | 1008.3 |
| 20260503213002 | 10 | 301 | 25.7 | 40.2 | 0.00 | 0.00 | 0.00 | 47 | 1008.1 |
| 20260503211600 | 10 | 289 | 24.1 | 40.2 | 0.00 | 0.00 | 0.00 | 45 | 1007.9 |
| 20260503210100 | 10 | 311 | 29.0 | 40.2 | 0.00 | 0.00 | 0.00 | 45 | 1007.8 |
| 20260503204557 | 10 | 303 | 19.3 | 40.2 | 0.00 | 0.00 | 0.00 | 48 | 1007.7 |
| 20260503203113 | 10 | 301 | 25.7 | 37.0 | 0.00 | 0.15 | 0.00 | 48 | 1007.6 |
| 20260503201555 | 10 | 251 | 19.3 | 33.8 | 0.00 | 0.15 | 0.00 | 50 | 1007.5 |
| 20260503200054 | 10 | 332 | 17.7 | 35.4 | 0.00 | 0.15 | 0.00 | 49 | 1007.3 |
| 20260503194551 | 10 | 282 | 16.1 | 38.6 | 0.00 | 0.15 | 0.00 | 47 | 1007.3 |
| 20260503193052 | 10 | 324 | 30.6 | 41.8 | 0.00 | 0.15 | 0.00 | 52 | 1007.2 |
| 20260503191552 | 10 | 293 | 24.1 | 33.8 | 0.00 | 0.15 | 0.00 | 53 | 1007.3 |
| 20260503190057 | 10 | 310 | 24.1 | 40.2 | 0.00 | 0.15 | 0.00 | 49 | 1007.3 |
| 20260503183045 | 10 | 306 | 24.1 | 38.6 | 0.00 | 0.15 | 0.00 | 50 | 1007.2 |
| 20260503181551 | 10 | 284 | 19.3 | 38.6 | 0.00 | 0.15 | 0.00 | 53 | 1007.3 |
| 20260503180051 | 10 | 298 | 29.0 | 38.6 | 0.00 | 0.15 | 0.00 | 51 | 1007.2 |
| 20260503174539 | 10 | 286 | 22.5 | 38.6 | 0.00 | 0.15 | 0.00 | 52 | 1007.2 |
| 20260503173039 | 10 | 292 | 25.7 | 38.6 | 0.00 | 0.15 | 0.00 | 52 | 1007.0 |
| 20260503171538 | 10 | 288 | 20.9 | 33.8 | 0.00 | 0.15 | 0.00 | 53 | 1007.1 |
| 20260503081531 | 6 | 303 | 12.9 | 22.5 | 0.00 | 0.33 | 0.00 | 64 | 1008.5 |
| 20260503071504 | 7 | 311 | 14.5 | 20.9 | 0.00 | 0.33 | 0.00 | 63 | 1008.9 |
| 20260503054525 | 7 | 305 | 9.7 | 19.3 | 0.00 | 0.33 | 0.00 | 60 | 1009.9 |
| 20260503053022 | 8 | 318 | 6.4 | 16.1 | 0.00 | 0.33 | 0.00 | 58 | 1010.0 |
| 20260503051514 | 8 | 315 | 8.0 | 17.7 | 0.00 | 0.33 | 0.00 | 59 | 1010.2 |
| 20260503050008 | 8 | 307 | 8.0 | 19.3 | 0.00 | 0.33 | 0.00 | 55 | 1010.4 |
| 20260503044508 | 8 | 315 | 11.3 | 17.7 | 0.00 | 0.33 | 0.00 | 56 | 1010.6 |